�N����,����,�~����,�C��,���x,�C��,����,���ϕ���,�ő�u�ԕ���,�ő厞����,���˗�,�I�_���x,�n�����x,�ő啗���N��,DTYPE
"22/08/11","00:10",0.0,26.3,86.7,1005.0,303.3,1.1,1.8,334.1,0.00,23.9,26.7,"00:06:00",1
"22/08/11","00:20",0.0,26.4,86.7,1005.0,305.2,1.0,1.6,338.0,0.00,24.0,26.7,"00:14:16",1
"22/08/11","00:30",0.0,26.3,86.6,1005.2,303.3,1.0,2.0,330.3,0.00,23.9,26.4,"00:24:40",1
"22/08/11","00:40",0.0,26.4,86.6,1005.0,288.4,1.0,1.4,286.7,0.00,24.0,26.7,"00:35:04",1
"22/08/11","00:50",0.0,26.3,86.4,1004.8,304.6,1.2,1.8,311.3,0.00,23.9,26.5,"00:43:12",1
"22/08/11","01:00",0.0,26.3,86.3,1005.0,296.7,0.7,1.7,302.4,0.00,23.9,26.7,"00:50:08",1
"22/08/11","01:10",0.0,26.3,86.3,1005.0,289.7,0.8,1.6,337.6,0.00,23.9,26.6,"01:00:32",1
"22/08/11","01:20",0.0,26.4,86.3,1005.0,298.0,1.0,1.7,332.0,0.00,24.0,26.5,"01:12:32",1
"22/08/11","01:30",0.0,26.5,86.2,1004.8,302.6,1.0,1.4,314.1,0.00,24.0,26.6,"01:21:12",1
"22/08/11","01:40",0.0,26.5,86.1,1004.5,320.3,1.1,1.6,324.2,0.00,24.0,26.7,"01:33:44",1
"22/08/11","01:50",0.0,26.5,86.2,1004.8,328.3,0.8,1.4,335.7,0.00,24.0,26.7,"01:43:44",1
"22/08/11","02:00",0.0,26.5,86.2,1004.5,329.5,0.8,1.3,352.1,0.00,24.0,26.7,"01:54:00",1
"22/08/11","02:10",0.0,26.4,86.4,1004.5,311.9,0.7,1.0,336.1,0.00,24.0,26.6,"02:03:44",1
"22/08/11","02:20",0.0,26.4,86.6,1004.5,299.4,1.0,1.9,318.1,0.00,24.0,26.6,"02:14:48",1
"22/08/11","02:30",0.0,26.4,86.6,1004.3,306.8,1.1,1.9,321.6,0.00,24.0,26.5,"02:20:24",1
"22/08/11","02:40",0.0,26.3,86.5,1004.5,309.8,0.7,1.1,309.5,0.00,23.9,26.5,"02:37:20",1
"22/08/11","02:50",0.0,26.3,86.6,1004.3,316.4,0.8,1.1,321.6,0.00,23.9,26.3,"02:41:28",1
"22/08/11","03:00",0.0,26.2,86.6,1004.3,296.9,0.7,1.1,323.4,0.00,23.8,26.4,"02:52:56",1
"22/08/11","03:10",0.0,26.2,86.7,1004.1,305.0,0.8,1.1,321.1,0.00,23.8,26.3,"03:03:44",1
"22/08/11","03:20",0.0,26.1,86.8,1004.1,301.6,0.7,1.2,321.3,0.00,23.8,26.2,"03:13:44",1
"22/08/11","03:30",0.0,26.1,86.9,1004.1,293.6,0.7,1.3,253.8,0.00,23.8,26.4,"03:27:28",1
"22/08/11","03:40",0.0,26.1,87.1,1004.1,301.0,0.8,1.7,333.7,0.00,23.8,26.3,"03:39:44",1
"22/08/11","03:50",0.0,25.9,87.2,1003.8,291.8,0.7,1.1,313.2,0.00,23.6,26.3,"03:40:24",1
"22/08/11","04:00",0.0,25.9,87.2,1003.6,303.6,0.7,1.1,319.6,0.00,23.6,26.5,"03:53:44",1
"22/08/11","04:10",0.0,25.8,87.4,1003.8,313.2,1.0,1.9,342.1,0.00,23.6,26.2,"04:05:12",1
"22/08/11","04:20",0.0,25.7,87.6,1003.6,319.9,1.1,1.7,312.1,0.00,23.5,26.4,"04:15:04",1
"22/08/11","04:30",0.0,25.6,87.8,1003.8,310.1,0.8,1.2,329.0,0.00,23.5,26.4,"04:28:24",1
"22/08/11","04:40",0.0,25.4,87.9,1004.1,316.2,0.7,1.0,322.5,0.00,23.3,26.4,"04:30:08",1
"22/08/11","04:50",0.0,25.3,88.1,1004.3,310.6,0.7,1.3,346.0,0.00,23.2,26.4,"04:42:40",1
"22/08/11","05:00",0.0,25.1,88.2,1004.3,300.8,0.5,0.6,317.0,0.00,23.0,26.3,"04:51:44",1
"22/08/11","05:10",0.0,25.2,88.4,1004.1,282.5,0.6,0.9,266.5,0.00,23.2,26.2,"05:06:32",1
"22/08/11","05:20",0.0,25.2,88.7,1004.3,296.5,0.7,1.3,338.6,0.00,23.2,26.2,"05:19:36",1
"22/08/11","05:30",0.0,25.3,88.9,1004.3,304.0,0.8,1.2,331.5,0.00,23.4,26.2,"05:22:24",1
"22/08/11","05:40",0.0,25.4,89.1,1004.1,340.0,1.1,1.4,341.1,0.00,23.5,26.4,"05:35:12",1
"22/08/11","05:50",0.0,25.3,89.2,1004.3,329.5,1.0,1.4,347.6,0.00,23.4,26.3,"05:42:16",1
"22/08/11","06:00",0.0,25.2,89.6,1004.3,316.7,1.1,1.8,330.9,0.00,23.4,26.1,"05:54:08",1
"22/08/11","06:10",0.0,25.2,89.8,1004.5,282.7,0.6,1.1,290.4,0.00,23.4,26.2,"06:00:08",1
"22/08/11","06:20",0.0,25.3,90.1,1004.5,298.0,0.7,1.7,326.4,0.00,23.6,26.0,"06:14:16",1
"22/08/11","06:30",0.0,25.5,90.2,1004.3,301.1,1.1,1.8,326.7,0.00,23.8,26.2,"06:22:08",1
"22/08/11","06:40",0.0,25.6,90.2,1004.3,293.5,0.7,1.3,324.6,0.01,23.9,26.1,"06:30:24",1
"22/08/11","06:50",0.0,25.8,90.2,1004.3,298.8,1.1,1.7,239.2,0.01,24.1,26.0,"06:47:28",1
"22/08/11","07:00",0.0,25.8,90.1,1004.5,306.1,1.1,1.6,316.4,0.01,24.1,26.2,"06:50:08",1
"22/08/11","07:10",0.0,25.9,90.1,1004.3,287.1,0.7,1.1,282.6,0.02,24.2,26.1,"07:03:36",1
"22/08/11","07:20",0.0,26.3,90.0,1004.3,310.5,1.0,1.4,331.5,0.04,24.6,26.1,"07:14:48",1
"22/08/11","07:30",0.0,27.3,89.7,1004.8,347.5,0.6,1.2,1.6,0.09,25.5,26.0,"07:21:52",1
"22/08/11","07:40",0.0,27.7,88.8,1004.3,350.1,0.6,1.2,340.6,0.05,25.7,26.0,"07:30:56",1
"22/08/11","07:50",0.0,27.9,88.0,1004.3,206.1,0.1,0.6,305.4,0.05,25.8,26.0,"07:40:24",1
"22/08/11","08:00",0.0,28.1,87.4,1004.1,321.3,0.6,1.1,305.6,0.10,25.8,26.2,"07:53:04",1
"22/08/11","08:10",0.0,28.4,86.0,1004.1,332.3,0.6,1.3,341.8,0.11,25.9,26.1,"08:02:24",1
"22/08/11","08:20",0.0,29.1,84.2,1003.6,304.5,0.6,1.8,339.6,0.20,26.2,26.0,"08:17:20",1
"22/08/11","08:30",0.0,30.1,81.2,1004.3,4.9,0.5,1.4,352.7,0.25,26.6,26.2,"08:20:08",1
"22/08/11","08:40",0.0,30.9,77.0,1004.8,68.0,0.6,1.8,39.8,0.25,26.4,26.1,"08:37:04",1
"22/08/11","08:50",0.0,31.5,74.3,1005.2,108.5,0.8,1.7,138.9,0.29,26.4,26.1,"08:41:44",1
"22/08/11","09:00",0.0,32.1,71.7,1005.2,46.3,0.7,1.4,21.0,0.34,26.4,26.3,"08:51:44",1
"22/08/11","09:10",0.0,32.1,70.8,1005.2,95.1,0.8,2.4,16.8,0.29,26.2,26.2,"09:06:08",1
"22/08/11","09:20",0.0,32.4,69.2,1005.7,74.9,0.8,2.2,356.6,0.33,26.1,26.2,"09:17:28",1
"22/08/11","09:30",0.0,31.4,71.0,1005.2,135.7,1.0,2.0,129.4,0.11,25.5,26.2,"09:23:12",1
"22/08/11","09:40",0.0,31.3,72.4,1005.0,94.5,0.5,1.3,31.0,0.20,25.8,26.2,"09:37:52",1
"22/08/11","09:50",0.0,31.2,70.7,1005.2,197.9,1.5,4.0,232.7,0.21,25.3,26.4,"09:40:02",1
"22/08/11","10:00",0.0,31.1,72.1,1004.8,189.9,1.3,3.3,190.1,0.20,25.5,26.4,"09:52:16",1
"22/08/11","10:10",0.0,31.8,69.6,1005.0,205.2,1.2,4.2,208.9,0.29,25.6,26.4,"10:07:04",1
"22/08/11","10:20",0.0,31.2,68.8,1005.0,191.7,1.5,3.2,203.3,0.09,24.8,26.4,"10:18:48",1
"22/08/11","10:30",0.0,31.2,69.7,1004.3,204.7,2.0,4.1,214.5,0.13,25.0,26.1,"10:28:24",1
"22/08/11","10:40",0.0,32.6,68.4,1005.2,198.7,1.1,2.9,204.2,0.48,26.1,26.3,"10:30:32",1
"22/08/11","10:50",0.0,32.9,64.5,1005.7,168.8,1.3,3.1,159.5,0.39,25.4,26.5,"10:48:00",1
"22/08/11","11:00",0.0,33.3,63.7,1005.7,200.6,2.0,3.9,187.7,0.38,25.5,26.6,"10:52:16",1
"22/08/11","11:10",0.0,33.9,61.1,1005.7,207.5,1.8,4.3,220.8,0.59,25.4,26.4,"11:03:28",1
"22/08/11","11:20",0.0,34.3,59.2,1006.2,173.9,1.3,3.2,127.0,0.61,25.2,26.5,"11:14:24",1
"22/08/11","11:30",0.0,34.2,59.3,1006.0,171.4,1.8,4.1,222.6,0.52,25.2,26.7,"11:28:48",1
"22/08/11","11:40",0.0,33.4,59.1,1005.7,170.4,1.7,4.3,113.2,0.27,24.4,26.7,"11:30:32",1
"22/08/11","11:50",0.0,33.8,57.0,1005.5,224.2,2.0,4.4,200.0,0.42,24.1,26.6,"11:45:12",1
"22/08/11","12:00",0.0,34.0,57.8,1005.5,189.8,1.1,3.7,233.1,0.36,24.5,26.8,"11:58:48",1
"22/08/11","12:10",0.0,34.7,54.0,1005.0,184.8,1.7,4.5,191.9,0.57,24.1,26.8,"12:07:52",1
"22/08/11","12:20",0.0,35.0,51.7,1005.0,188.2,1.8,4.3,169.9,0.49,23.6,26.8,"12:18:40",1
"22/08/11","12:30",0.0,34.5,51.9,1005.2,181.4,1.8,4.0,200.0,0.34,23.2,26.7,"12:20:56",1
"22/08/11","12:40",0.0,34.8,50.4,1005.2,201.0,2.5,5.7,236.1,0.46,23.0,26.7,"12:36:08",1
"22/08/11","12:50",0.0,35.2,49.7,1004.5,186.9,2.5,4.2,232.8,0.51,23.1,27.0,"12:40:32",1
"22/08/11","13:00",0.0,34.9,50.2,1005.2,181.5,1.7,4.0,196.2,0.32,23.0,27.0,"12:51:12",1
"22/08/11","13:10",0.0,36.0,46.8,1005.0,213.5,2.1,4.1,235.4,0.63,22.9,27.0,"13:09:28",1
"22/08/11","13:20",0.0,36.2,47.1,1005.2,195.7,1.8,4.3,221.8,0.62,23.2,27.0,"13:12:08",1
"22/08/11","13:30",0.0,36.2,48.5,1005.2,173.7,2.6,5.5,208.6,0.59,23.7,27.0,"13:22:40",1
"22/08/11","13:40",0.0,36.1,46.8,1005.2,231.3,2.5,5.5,243.9,0.58,23.0,27.1,"13:31:12",1
"22/08/11","13:50",0.0,36.0,47.6,1005.2,219.6,2.0,4.5,222.6,0.52,23.2,27.2,"13:47:20",1
"22/08/11","14:00",0.0,36.0,49.3,1005.0,146.3,1.5,3.4,166.4,0.44,23.7,27.2,"13:59:12",1
"22/08/11","14:10",0.0,35.3,49.0,1004.8,171.6,2.0,4.5,175.3,0.27,23.0,27.3,"14:02:40",1
"22/08/11","14:20",0.0,36.5,47.6,1004.8,209.5,1.6,3.7,234.9,0.48,23.6,27.4,"14:10:16",1
"22/08/11","14:30",0.0,37.3,42.5,1005.0,216.5,1.0,2.2,189.5,0.54,22.5,27.4,"14:26:08",1
"22/08/11","14:40",0.0,37.5,41.6,1005.0,239.1,1.5,5.1,209.7,0.53,22.3,27.4,"14:33:20",1
"22/08/11","14:50",0.0,37.8,41.3,1004.5,229.9,1.5,3.7,198.1,0.54,22.4,27.3,"14:48:48",1
"22/08/11","15:00",0.0,37.4,39.4,1004.8,191.4,1.8,4.3,221.8,0.48,21.3,27.5,"14:58:16",1
"22/08/11","15:10",0.0,37.3,40.2,1004.8,232.5,2.0,5.4,218.4,0.49,21.5,27.6,"15:00:32",1
"22/08/11","15:20",0.0,37.1,41.6,1004.3,228.0,1.7,4.0,234.6,0.42,21.9,27.3,"15:13:52",1
"22/08/11","15:30",0.0,37.1,40.8,1004.1,236.2,1.0,3.4,215.4,0.36,21.6,27.6,"15:25:20",1
"22/08/11","15:40",0.0,37.7,42.7,1004.3,193.7,1.2,4.1,230.0,0.44,22.9,27.5,"15:35:28",1
"22/08/11","15:50",0.0,37.1,41.1,1004.1,199.5,2.5,4.8,223.0,0.40,21.7,27.8,"15:47:12",1
"22/08/11","16:00",0.0,36.8,40.4,1003.8,224.0,2.0,3.6,228.9,0.29,21.2,27.7,"15:58:00",1
"22/08/11","16:10",0.0,37.0,43.3,1003.8,281.6,1.0,2.4,334.4,0.33,22.5,27.7,"16:07:20",1
"22/08/11","16:20",0.0,36.8,44.4,1003.6,224.0,1.6,3.7,196.7,0.30,22.7,27.5,"16:18:48",1
"22/08/11","16:30",0.0,36.6,42.0,1003.6,201.6,2.3,4.8,234.9,0.29,21.6,27.8,"16:29:52",1
"22/08/11","16:40",0.0,36.5,43.7,1003.6,200.5,1.7,4.2,169.6,0.25,22.2,27.8,"16:39:52",1
"22/08/11","16:50",0.0,36.3,43.8,1003.4,199.9,1.8,4.1,188.7,0.21,22.1,27.8,"16:40:08",1
"22/08/11","17:00",0.0,36.2,44.1,1003.4,196.9,1.6,4.1,221.2,0.19,22.1,27.7,"16:57:04",1
"22/08/11","17:10",0.0,35.6,45.6,1003.6,185.8,2.5,4.5,209.1,0.15,22.1,27.7,"17:06:56",1
"22/08/11","17:20",0.0,35.6,44.0,1003.1,203.3,2.2,4.3,205.2,0.13,21.5,27.7,"17:13:36",1
"22/08/11","17:30",0.0,35.5,45.1,1003.1,219.1,1.3,3.2,228.4,0.09,21.8,27.8,"17:23:44",1
"22/08/11","17:40",0.0,35.2,45.4,1002.9,276.5,1.0,3.7,342.8,0.07,21.7,27.7,"17:37:04",1
"22/08/11","17:50",0.0,35.2,43.9,1003.1,239.4,1.8,4.2,234.9,0.10,21.1,27.6,"17:48:56",1
"22/08/11","18:00",0.0,35.0,43.4,1002.9,249.4,1.6,3.7,235.3,0.08,20.7,27.7,"17:55:44",1
"22/08/11","18:10",0.0,34.6,42.9,1002.6,229.4,2.0,4.0,239.9,0.04,20.2,27.8,"18:07:44",1
"22/08/11","18:20",0.0,33.9,44.1,1002.2,234.7,1.5,3.3,222.1,0.01,20.0,27.8,"18:18:00",1
"22/08/11","18:30",0.0,33.4,45.4,1002.4,230.8,1.1,2.7,215.1,0.00,20.0,27.7,"18:24:56",1
"22/08/11","18:40",0.0,33.2,46.0,1001.7,239.8,1.3,3.9,231.2,0.00,20.1,27.6,"18:32:00",1
"22/08/11","18:50",0.0,32.8,47.7,1001.9,239.5,0.8,2.5,242.1,0.00,20.3,27.7,"18:44:48",1
"22/08/11","19:00",0.0,32.2,50.5,1001.5,144.3,0.6,1.9,119.3,0.00,20.7,27.7,"18:52:16",1
"22/08/11","19:10",0.0,31.0,55.3,1001.5,339.8,0.7,1.7,348.7,0.00,21.0,27.6,"19:07:12",1
"22/08/11","19:20",0.0,30.6,59.6,1001.0,358.2,1.0,1.7,7.3,0.00,21.9,27.6,"19:16:16",1
"22/08/11","19:30",0.0,30.0,61.5,1001.2,1.8,1.0,1.9,355.0,0.00,21.8,27.4,"19:25:36",1
"22/08/11","19:40",0.0,29.5,62.2,1001.0,345.4,0.8,1.9,351.5,0.00,21.5,27.5,"19:39:52",1
"22/08/11","19:50",0.0,29.6,63.2,1001.2,340.7,0.7,1.7,353.7,0.00,21.9,27.4,"19:40:16",1
"22/08/11","20:00",0.0,29.6,63.9,1001.2,357.3,0.7,2.1,359.4,0.00,22.1,27.5,"19:52:40",1
"22/08/11","20:10",0.0,29.1,64.8,1001.2,28.7,0.5,1.0,123.3,0.00,21.8,27.3,"20:03:28",1
"22/08/11","20:20",0.0,29.0,65.3,1001.9,344.0,0.5,1.1,359.9,0.00,21.9,27.4,"20:15:52",1
"22/08/11","20:30",0.0,29.2,67.1,1001.9,343.0,0.7,2.0,351.2,0.00,22.5,27.4,"20:27:52",1
"22/08/11","20:40",0.0,28.4,68.2,1002.2,350.0,1.3,2.6,349.9,0.00,22.0,27.4,"20:31:52",1
"22/08/11","20:50",0.0,28.5,68.5,1002.2,312.0,1.1,2.4,348.7,0.00,22.2,27.3,"20:44:00",1
"22/08/11","21:00",0.0,28.6,68.9,1002.4,324.4,1.0,2.1,328.0,0.00,22.4,27.2,"20:50:16",1
"22/08/11","21:10",0.0,28.5,69.4,1002.9,332.2,1.1,2.4,349.1,0.00,22.4,27.3,"21:08:32",1
"22/08/11","21:20",0.0,28.3,70.4,1002.6,338.3,1.2,2.6,343.1,0.00,22.4,27.0,"21:13:52",1
"22/08/11","21:30",0.0,28.2,69.1,1002.6,343.9,1.5,2.8,343.2,0.00,22.0,27.2,"21:26:32",1
"22/08/11","21:40",0.0,28.7,66.5,1002.9,336.7,2.0,3.4,342.5,0.00,21.9,27.1,"21:34:56",1
"22/08/11","21:50",0.0,29.2,65.2,1002.9,328.7,1.5,3.5,316.9,0.00,22.0,27.0,"21:47:04",1
"22/08/11","22:00",0.0,29.3,64.8,1002.9,336.1,1.3,3.2,317.2,0.00,22.0,27.2,"21:52:48",1
"22/08/11","22:10",0.0,29.2,65.7,1002.9,177.6,0.8,1.9,204.3,0.00,22.2,27.1,"22:03:36",1
"22/08/11","22:20",0.0,29.1,66.9,1002.6,50.1,0.7,1.7,1.5,0.00,22.4,27.2,"22:16:48",1
"22/08/11","22:30",0.0,28.9,69.1,1002.9,357.7,0.8,1.4,356.9,0.00,22.7,26.9,"22:20:16",1
"22/08/11","22:40",0.0,28.7,70.9,1002.6,340.3,0.8,1.7,350.0,0.00,22.9,27.1,"22:36:40",1
"22/08/11","22:50",0.0,28.8,72.0,1002.9,326.2,1.0,2.1,345.2,0.00,23.3,27.1,"22:47:04",1
"22/08/11","23:00",0.0,29.1,73.2,1002.4,324.1,1.3,2.5,347.2,0.00,23.8,26.9,"22:50:16",1
"22/08/11","23:10",0.0,28.9,72.3,1002.6,326.8,1.3,2.8,345.8,0.00,23.5,26.9,"23:00:02",1
"22/08/11","23:20",0.0,28.9,72.4,1002.4,329.9,1.3,2.9,345.1,0.00,23.5,27.0,"23:10:24",1
"22/08/11","23:30",0.4,28.4,75.2,1002.4,339.2,1.2,2.1,351.9,0.00,23.6,26.8,"23:24:24",1
"22/08/11","23:40",0.2,27.7,78.5,1002.4,302.8,0.6,1.2,3.9,0.00,23.7,27.0,"23:30:24",1
"22/08/11","23:50",0.0,27.2,81.5,1002.4,326.9,1.0,1.9,350.1,0.00,23.8,27.0,"23:46:24",1
"22/08/11","24:00",0.0,26.9,83.3,1002.4,349.3,0.7,1.7,349.8,0.00,23.9,26.8,"23:51:20",1
